• în România
  • Lista ţărilor
  • Pe 7 zile
  • Temperatura apei
  • Hartă satelitară
  • Meteo pe hartă
  • Widget-uri
  • user-avatar
    Intrare

    Meteo pe oră la Zbudovo

    Astăzi, 14 Noiembrie, Miercuri

    Timp Temperatura Precipitaţii Vânt Presiune Umiditate
    00:00 -4°C° 0.6 mm 6 m/s 752 mmHg 82%
    01:00 -4°C° 0.6 mm 5 m/s 752 mmHg 80%
    02:00 -2°C° 0 mm 5 m/s 751 mmHg 76%
    03:00 -4°C° 0.4 mm 5 m/s 751 mmHg 76%
    04:00 -4°C° 0.4 mm 5 m/s 751 mmHg 75%
    05:00 -4°C° 0.4 mm 5 m/s 751 mmHg 75%
    06:00 -4°C° 0.7 mm 5 m/s 751 mmHg 80%
    07:00 -3°C° 0.7 mm 4 m/s 751 mmHg 85%
    08:00 -4°C° 0 mm 4 m/s 751 mmHg 90%
    09:00 -4°C° 0.7 mm 4 m/s 751 mmHg 90%
    10:00 -3°C° 0.7 mm 4 m/s 751 mmHg 90%
    11:00 -3°C° 0.7 mm 4 m/s 751 mmHg 90%
    12:00 -3°C° 0.4 mm 4 m/s 752 mmHg 89%
    13:00 -3°C° 0.4 mm 4 m/s 752 mmHg 89%
    14:00 -2°C° 0.4 mm 3 m/s 752 mmHg 88%
    15:00 -2°C° 0.2 mm 3 m/s 752 mmHg 88%
    16:00 -2°C° 0.2 mm 3 m/s 753 mmHg 89%
    17:00 -4°C° 0.2 mm 3 m/s 753 mmHg 89%
    18:00 -3°C° 0.2 mm 2 m/s 753 mmHg 89%
    19:00 -3°C° 0.2 mm 2 m/s 754 mmHg 90%
    20:00 -3°C° 0.2 mm 2 m/s 754 mmHg 90%
    21:00 -3°C° 0.2 mm 2 m/s 754 mmHg 90%
    22:00 -3°C° 0.2 mm 2 m/s 755 mmHg 90%
    23:00 -3°C° 0.2 mm 2 m/s 755 mmHg 90%

    Mâine, 15 Noiembrie, Joi

    Timp Temperatura Precipitaţii Vânt Presiune Umiditate
    00:00 -3°C° 0.2 mm 2 m/s 755 mmHg 91%
    01:00 -3°C° 0.2 mm 2 m/s 756 mmHg 91%
    02:00 -3°C° 0.2 mm 2 m/s 756 mmHg 92%
    03:00 -3°C° 0.2 mm 2 m/s 757 mmHg 92%
    04:00 -3°C° 0.2 mm 2 m/s 757 mmHg 92%
    05:00 -4°C° 0.2 mm 2 m/s 757 mmHg 93%
    06:00 -4°C° 0.1 mm 2 m/s 758 mmHg 93%
    07:00 -2°C° 0.1 mm 1 m/s 758 mmHg 93%
    08:00 -2°C° 0.1 mm 1 m/s 759 mmHg 93%
    09:00 -1°C° 0.1 mm 1 m/s 759 mmHg 92%
    10:00 -1°C° 0.1 mm 1 m/s 760 mmHg 90%
    11:00 0°C° 0.1 mm 1 m/s 760 mmHg 89%
    12:00 0°C° 0 mm 1 m/s 761 mmHg 90%
    13:00 0°C° 0 mm 1 m/s 761 mmHg 90%
    14:00 0°C° 0 mm 1 m/s 761 mmHg 91%
    15:00 -1°C° 0 mm 1 m/s 762 mmHg 92%
    16:00 -2°C° 0 mm 1 m/s 762 mmHg 93%
    17:00 -2°C° 0 mm 1 m/s 762 mmHg 94%
    18:00 -2°C° 0 mm 1 m/s 763 mmHg 95%
    19:00 -3°C° 0 mm 1 m/s 763 mmHg 95%
    20:00 -3°C° 0 mm 1 m/s 763 mmHg 95%
    21:00 -3°C° 0 mm 1 m/s 764 mmHg 95%
    22:00 -3°C° 0 mm 1 m/s 764 mmHg 95%
    23:00 -3°C° 0 mm 1 m/s 764 mmHg 95%

    Poimâine, 16 Noiembrie, Vineri

    Timp Temperatura Precipitaţii Vânt Presiune Umiditate
    00:00 -3°C° 0 mm 1 m/s 765 mmHg 95%
    01:00 -4°C° 0 mm 1 m/s 765 mmHg 95%
    02:00 -4°C° 0 mm 1 m/s 765 mmHg 95%
    03:00 -4°C° 0 mm 1 m/s 765 mmHg 95%
    04:00 -6°C° 0 mm 2 m/s 765 mmHg 95%
    05:00 -6°C° 0 mm 2 m/s 765 mmHg 95%
    06:00 -6°C° 0 mm 2 m/s 766 mmHg 95%
    07:00 -5°C° 0 mm 2 m/s 766 mmHg 95%
    08:00 -5°C° 0 mm 2 m/s 766 mmHg 95%
    09:00 -4°C° 0 mm 2 m/s 766 mmHg 93%
    10:00 -3°C° 0 mm 2 m/s 766 mmHg 91%
    11:00 -2°C° 0 mm 2 m/s 766 mmHg 89%
    12:00 -2°C° 0 mm 2 m/s 766 mmHg 89%
    13:00 -2°C° 0 mm 3 m/s 766 mmHg 90%
    14:00 -2°C° 0 mm 3 m/s 766 mmHg 90%
    15:00 -2°C° 0 mm 3 m/s 766 mmHg 92%
    16:00 -2°C° 0 mm 3 m/s 766 mmHg 93%
    17:00 -4°C° 0 mm 3 m/s 765 mmHg 94%
    18:00 -4°C° 0 mm 3 m/s 765 mmHg 94%
    19:00 -4°C° 0 mm 3 m/s 765 mmHg 94%
    20:00 -4°C° 0 mm 3 m/s 765 mmHg 94%
    21:00 -4°C° 0 mm 3 m/s 765 mmHg 94%
    22:00 -4°C° 0 mm 3 m/s 765 mmHg 94%
    23:00 -4°C° 0 mm 3 m/s 765 mmHg 95%

    17 Noiembrie, Sâmbătă

    Timp Temperatura Precipitaţii Vânt Presiune Umiditate
    00:00 -4°C° 0 mm 3 m/s 764 mmHg 94%
    01:00 -2°C° 0 mm 3 m/s 764 mmHg 94%
    02:00 -2°C° 0 mm 3 m/s 764 mmHg 94%
    03:00 -2°C° 0.1 mm 3 m/s 763 mmHg 94%
    04:00 -2°C° 0.1 mm 4 m/s 763 mmHg 93%
    05:00 -2°C° 0.1 mm 4 m/s 762 mmHg 93%
    06:00 -1°C° 0.3 mm 4 m/s 762 mmHg 93%
    07:00 -1°C° 0.3 mm 4 m/s 761 mmHg 94%
    08:00 -1°C° 0.3 mm 4 m/s 761 mmHg 94%
    09:00 0°C° 0.1 mm 4 m/s 760 mmHg 94%
    10:00 0°C° 0.1 mm 4 m/s 760 mmHg 94%
    11:00 0°C° 0.1 mm 4 m/s 759 mmHg 94%
    12:00 +1°C° 0.1 mm 4 m/s 759 mmHg 94%
    13:00 +1°C° 0.1 mm 4 m/s 758 mmHg 94%
    14:00 +1°C° 0.1 mm 4 m/s 757 mmHg 94%
    15:00 +1°C° 0 mm 4 m/s 757 mmHg 94%
    16:00 +1°C° 0 mm 4 m/s 756 mmHg 94%
    17:00 +1°C° 0 mm 4 m/s 755 mmHg 94%
    18:00 +1°C° 0 mm 4 m/s 755 mmHg 94%
    19:00 +1°C° 0 mm 4 m/s 754 mmHg 93%
    20:00 +1°C° 0 mm 4 m/s 753 mmHg 93%
    21:00 +1°C° 0.1 mm 4 m/s 753 mmHg 93%
    22:00 +1°C° 0.1 mm 4 m/s 752 mmHg 93%
    23:00 0°C° 0.1 mm 4 m/s 752 mmHg 94%

    18 Noiembrie, Duminică

    Timp Temperatura Precipitaţii Vânt Presiune Umiditate
    00:00 0°C° 0.1 mm 4 m/s 751 mmHg 93%
    01:00 0°C° 0.1 mm 4 m/s 750 mmHg 93%
    02:00 0°C° 0.1 mm 4 m/s 750 mmHg 93%
    03:00 0°C° 0.2 mm 4 m/s 749 mmHg 93%
    04:00 0°C° 0.2 mm 4 m/s 749 mmHg 92%
    05:00 0°C° 0.2 mm 4 m/s 748 mmHg 92%
    06:00 0°C° 0.2 mm 4 m/s 748 mmHg 90%
    07:00 0°C° 0.2 mm 4 m/s 748 mmHg 89%
    08:00 0°C° 0.2 mm 4 m/s 748 mmHg 88%
    09:00 0°C° 0.3 mm 4 m/s 748 mmHg 88%
    10:00 0°C° 0.3 mm 5 m/s 748 mmHg 87%
    11:00 0°C° 0.3 mm 5 m/s 748 mmHg 87%
    12:00 +1°C° 0.2 mm 5 m/s 749 mmHg 88%
    13:00 +1°C° 0.2 mm 5 m/s 749 mmHg 88%
    14:00 +1°C° 0.2 mm 5 m/s 750 mmHg 89%
    15:00 +1°C° 0.1 mm 5 m/s 750 mmHg 89%
    16:00 +1°C° 0.1 mm 5 m/s 751 mmHg 90%
    17:00 0°C° 0.1 mm 5 m/s 751 mmHg 90%
    18:00 0°C° 0.2 mm 5 m/s 752 mmHg 90%
    19:00 0°C° 0.2 mm 5 m/s 752 mmHg 89%
    20:00 0°C° 0.2 mm 5 m/s 753 mmHg 88%
    21:00 0°C° 0.1 mm 5 m/s 753 mmHg 88%
    22:00 0°C° 0.1 mm 5 m/s 754 mmHg 88%
    23:00 -1°C° 0.1 mm 5 m/s 754 mmHg 88%

    19 Noiembrie, Luni

    Timp Temperatura Precipitaţii Vânt Presiune Umiditate
    00:00 -1°C° 0 mm 4 m/s 755 mmHg 88%
    01:00 -1°C° 0 mm 4 m/s 755 mmHg 89%
    02:00 -1°C° 0 mm 4 m/s 756 mmHg 89%
    03:00 -1°C° 0.1 mm 4 m/s 756 mmHg 89%
    04:00 -1°C° 0.1 mm 4 m/s 756 mmHg 89%
    05:00 -1°C° 0.1 mm 4 m/s 756 mmHg 89%
    06:00 -1°C° 0 mm 4 m/s 757 mmHg 89%
    07:00 -2°C° 0 mm 4 m/s 757 mmHg 89%
    08:00 -2°C° 0 mm 4 m/s 758 mmHg 89%
    09:00 -2°C° 0 mm 4 m/s 758 mmHg 88%
    10:00 -2°C° 0 mm 4 m/s 758 mmHg 88%
    11:00 -2°C° 0 mm 4 m/s 759 mmHg 87%
    12:00 -2°C° 0 mm 4 m/s 759 mmHg 87%
    13:00 -2°C° 0 mm 4 m/s 759 mmHg 87%
    14:00 -1°C° 0 mm 3 m/s 759 mmHg 88%
    15:00 -1°C° 0 mm 3 m/s 759 mmHg 89%
    16:00 -1°C° 0 mm 3 m/s 760 mmHg 90%
    17:00 -1°C° 0 mm 3 m/s 760 mmHg 91%
    18:00 -1°C° 0 mm 3 m/s 760 mmHg 91%
    19:00 -1°C° 0 mm 3 m/s 760 mmHg 92%
    20:00 -1°C° 0 mm 3 m/s 761 mmHg 92%
    21:00 -1°C° 0 mm 3 m/s 761 mmHg 93%
    22:00 -1°C° 0 mm 2 m/s 761 mmHg 93%
    23:00 -2°C° 0 mm 2 m/s 761 mmHg 94%
    Arată mai mult